Torna al catalogo

YAOGAN-36 02B

AttivoMilitareVLEO
NORAD 54043·PAYLOAD·🇨🇳 China

Lanciato Oct 14, 2022 da Xichang Satellite Launch Center

Loading…

Prossimi Passaggi (prossime 24 ore)

TLE

AggiornatoSource: Space-Track

Epoca: Sep 14, 2026, 10:16 UTC

1 54043U 22133B   26257.42796162  .00008577  00000-0  25336-3 0  9995
2 54043  34.9956 260.0780 0004889 201.1692 158.8825 15.34174634218553

Traccia YAOGAN-36 02B in tempo reale con AllMySat

Download on the App Store